Alice, TX

4:32 PM CST on December 08, 2016 (GMT -0600)
Alice International

Weather History for KALI - February, 2013

Change the Weather History Date:

Tuesday, February 19, 2013

  Actual Average Record
Temperature  
Mean Temperature 63 °F -  
Max Temperature 69 °F 71 °F 87 °F (2014)
Min Temperature 57 °F 49 °F 33 °F (2006)
Degree Days  
Heating Degree Days 2    
Growing Degree Days 13 (Base 50)    
Moisture  
Dew Point 47 °F    
Average Humidity 57    
Maximum Humidity 90    
Minimum Humidity 37    
Precipitation  
Precipitation 0.00 in - - ()
Sea Level Pressure  
Sea Level Pressure 30.09 in    
Wind  
Wind Speed 12 mph (ENE)    
Max Wind Speed 20 mph    
Max Gust Speed 28 mph    
Visibility 10 miles    
Events      
Averages and records for this station are not official NWS values.
T = Trace of Precipitation, MM = Missing Value Source: NWS Daily Summary

Daily Weather History Graph

Daily Weather History Graph

Search for Another Location

Airport or City:

Trip Planner

Search our weather history database for the weather conditions in past years. The results will help you decide how hot, cold, wet, or windy it might be!

Date:

Astronomy

Feb. 19, 2013 Rise Set
Actual Time 7:05 AM CST 6:26 PM CST
Civil Twilight 6:41 AM CST 6:50 PM CST
Nautical Twilight 6:14 AM CST 7:17 PM CST
Astronomical Twilight 5:47 AM CST 7:44 PM CST
Moon 1:14 PM CST (2/19) 2:23 AM CST (2/19)
Length of Visible Light 12h 08m
Length of Day
11h 20m
Waxing Gibbous, 67% of the Moon is Illuminated
Feb 19
Waxing Gibbous
Feb 25
Full
Mar 4
Last Quarter
Mar 11
New
Mar 19
First Quarter

Hourly Weather History & Observations

Time (CST) Temp. Dew Point Humidity Pressure Visibility Wind Dir Wind Speed Gust Speed Precip Events Conditions
12:53 AM 63.0 °F 57.9 °F 84% 29.98 in 10.0 mi South 3.5 mph - N/A   Clear
1:53 AM 57.9 °F 55.0 °F 90% 30.01 in 10.0 mi Calm Calm - N/A   Clear
2:31 AM 64.4 °F 60.8 °F 88% 30.04 in 10.0 mi North 11.5 mph 17.3 mph N/A   Mostly Cloudy
2:53 AM 66.0 °F 60.1 °F 81% 30.04 in 10.0 mi NNE 9.2 mph - N/A   Overcast
3:53 AM 64.9 °F 48.0 °F 54% 30.07 in 10.0 mi NE 19.6 mph 25.3 mph N/A   Overcast
4:53 AM 62.1 °F 39.0 °F 43% 30.09 in 10.0 mi ENE 19.6 mph - 0.00 in   Overcast
5:39 AM 60.8 °F 37.4 °F 42% 30.11 in 10.0 mi NE 15.0 mph - N/A   Mostly Cloudy
5:53 AM 61.0 °F 37.9 °F 42% 30.10 in 10.0 mi NE 16.1 mph - N/A   Overcast
6:53 AM 61.0 °F 37.0 °F 41% 30.13 in 10.0 mi ENE 19.6 mph 24.2 mph N/A   Mostly Cloudy
7:53 AM 61.0 °F 36.0 °F 39% 30.16 in 10.0 mi ENE 15.0 mph 20.7 mph N/A   Overcast
8:53 AM 62.1 °F 37.0 °F 39% 30.18 in 10.0 mi ENE 17.3 mph 24.2 mph N/A   Overcast
9:53 AM 64.0 °F 37.9 °F 38% 30.19 in 10.0 mi ENE 19.6 mph 26.5 mph N/A   Overcast
10:53 AM 66.0 °F 39.0 °F 37% 30.20 in 10.0 mi East 16.1 mph - N/A   Overcast
12:53 PM 69.1 °F 42.1 °F 38% 30.16 in 10.0 mi ENE 19.6 mph 27.6 mph N/A   Mostly Cloudy
1:53 PM 68.0 °F 46.0 °F 45% 30.14 in 10.0 mi East 13.8 mph 24.2 mph N/A   Overcast
2:53 PM 69.1 °F 46.9 °F 45% 30.12 in 10.0 mi East 13.8 mph - N/A   Overcast
3:53 PM 68.0 °F 48.0 °F 49% 30.09 in 10.0 mi ESE 17.3 mph - N/A   Overcast
4:53 PM 66.9 °F 50.0 °F 54% 30.08 in 10.0 mi East 18.4 mph 26.5 mph N/A   Mostly Cloudy
6:53 PM 64.0 °F 51.1 °F 63% 30.08 in 10.0 mi East 16.1 mph 23.0 mph N/A   Overcast
7:53 PM 63.0 °F 51.1 °F 65% 30.09 in 10.0 mi East 15.0 mph - N/A   Overcast
8:53 PM 63.0 °F 51.1 °F 65% 30.08 in 10.0 mi East 12.7 mph - N/A   Mostly Cloudy
9:53 PM 63.0 °F 53.1 °F 70% 30.07 in 10.0 mi East 11.5 mph - N/A   Overcast
10:53 PM 63.0 °F 54.0 °F 72% 30.03 in 10.0 mi East 15.0 mph - N/A   Mostly Cloudy
11:53 PM 62.6 °F 53.6 °F 72% 30.03 in 10.0 mi ESE 10.4 mph - N/A   Overcast